FW8132 Weather Reports


Display with metric or nautical units.
time (UTC)temp
F
wind
direction
speed
MPH
gust
MPH
rain 1hr
in
rain 24hr
in
rain mn
in
humidity
%
barometer
mb
20260506061547 68 223 7.0 12.0 0.00 0.00 0.00 84 1017.3
20260506044553 69 209 9.0 14.0 0.00 0.00 0.00 82 1018.2
20260506043046 69 225 9.0 13.0 0.00 0.00 0.00 82 1018.3
20260506041557 69 278 8.0 13.0 0.00 0.00 0.00 83 1018.5
20260506040044 69 210 8.0 13.0 0.00 0.00 0.00 83 1018.6
20260506034545 68 257 8.0 14.0 0.00 0.00 0.00 82 1018.6
20260506033049 69 203 8.0 12.0 0.00 0.00 0.00 83 1018.7
20260506031546 68 222 8.0 13.0 0.00 0.00 0.00 83 1018.7
20260506030046 69 174 8.0 14.0 0.00 0.00 0.00 82 1018.8
20260506024546 69 213 8.0 13.0 0.00 0.00 0.00 82 1018.9
20260506023043 69 215 8.0 15.0 0.00 0.00 0.00 82 1018.9
20260506021553 69 171 9.0 14.0 0.00 0.00 0.00 82 1018.9
20260506020047 69 209 9.0 15.0 0.00 0.00 0.00 82 1018.9
20260506014552 69 216 8.0 15.0 0.00 0.00 0.00 81 1018.8
20260506013046 69 220 9.0 15.0 0.00 0.00 0.00 81 1018.7
20260506011550 69 231 8.0 15.0 0.00 0.00 0.00 83 1018.7
20260506010050 69 211 9.0 14.0 0.00 0.00 0.00 82 1018.7
20260506004548 69 193 8.0 14.0 0.00 0.00 0.00 82 1018.6
20260506003047 69 184 8.0 13.0 0.00 0.00 0.00 83 1018.4
20260506001607 69 210 9.0 14.0 0.00 0.00 0.00 83 1018.4
20260506000049 69 216 7.0 13.0 0.00 0.00 0.00 83 1018.5
20260505234550 69 233 5.0 10.0 0.00 0.00 0.00 84 1018.4
20260505233051 70 229 4.0 10.0 0.00 0.00 0.00 83 1018.4
20260505231555 70 219 3.0 7.0 0.00 0.00 0.00 83 1018.5
20260505230049 70 218 2.0 7.0 0.00 0.00 0.00 83 1018.5
20260505224547 71 235 3.0 8.0 0.00 0.00 0.00 82 1018.5
20260505223054 71 223 4.0 8.0 0.00 0.00 0.00 81 1018.7
20260505221549 71 186 3.0 8.0 0.00 0.00 0.00 81 1018.5
20260505220047 71 210 3.0 9.0 0.00 0.00 0.00 81 1018.3
20260505214601 71 219 4.0 7.0 0.00 0.00 0.00 81 1018.2
20260505213055 71 205 5.0 11.0 0.00 0.00 0.00 80 1018.2
20260505211544 71 222 7.0 10.0 0.00 0.00 0.00 80 1018.4
20260505210052 71 224 8.0 14.0 0.00 0.00 0.00 79 1018.5
20260505204543 71 216 7.0 12.0 0.00 0.00 0.00 79 1018.5
20260505203047 72 210 7.0 12.0 0.00 0.00 0.00 79 1018.6
20260505201553 73 221 6.0 11.0 0.00 0.00 0.00 77 1018.8
20260505200047 73 202 6.0 11.0 0.00 0.00 0.00 77 1019.1
20260505194547 74 207 5.0 12.0 0.00 0.00 0.00 74 1019.4
20260505193048 74 238 4.0 11.0 0.00 0.00 0.00 74 1019.5
20260505191552 73 224 5.0 11.0 0.00 0.00 0.00 76 1019.5
20260505190110 73 250 7.0 12.0 0.00 0.00 0.00 76 1019.6
20260505184600 73 192 7.0 12.0 0.00 0.00 0.00 75 1019.6
20260505183050 74 186 6.0 13.0 0.00 0.00 0.00 73 1019.6
20260505181544 74 250 6.0 12.0 0.00 0.00 0.00 75 1019.6
20260505180046 73 202 6.0 12.0 0.00 0.00 0.00 74 1019.6
20260505174552 73 236 8.0 12.0 0.00 0.00 0.00 75 1019.8
20260505173047 73 166 4.0 8.0 0.00 0.00 0.00 74 1019.9
20260505171548 74 188 3.0 7.0 0.00 0.00 0.00 73 1019.9
20260505170056 74 227 2.0 8.0 0.00 0.00 0.00 74 1020.0
20260505164547 74 196 3.0 7.0 0.00 0.00 0.00 74 1020.3
20260505163116 73 245 2.0 7.0 0.00 0.00 0.00 74 1020.4
20260505161545 73 204 1.0 7.0 0.00 0.00 0.00 74 1020.3
20260505153107 73 230 2.0 6.0 0.00 0.00 0.00 76 1020.4
20260505151544 73 210 0.0 5.0 0.00 0.00 0.00 77 1020.4
20260505150109 74 0 0.0 5.0 0.00 0.00 0.00 76 1020.1
20260505140114 73 226 2.0 5.0 0.00 0.00 0.00 75 1020.0
20260505124543 74 230 0.0 3.0 0.00 0.00 0.00 75 1019.8
20260505123105 74 236 0.0 2.0 0.00 0.00 0.00 76 1019.7
20260505121543 73 158 0.0 4.0 0.00 0.00 0.00 77 1019.6
20260505120052 72 219 0.0 2.0 0.00 0.00 0.00 79 1019.6
20260505114553 71 214 1.0 5.0 0.00 0.00 0.00 79 1019.5
20260505113051 70 217 0.0 4.0 0.00 0.00 0.00 80 1019.4
20260505111546 68 0 1.0 3.0 0.00 0.00 0.00 81 1019.3
20260505101547 65 231 2.0 5.0 0.00 0.00 0.00 84 1018.5
20260505100047 65 218 2.0 4.0 0.00 0.00 0.00 84 1018.4
20260505094549 65 210 2.0 5.0 0.00 0.00 0.00 84 1018.4
20260505093048 65 219 1.0 5.0 0.00 0.00 0.00 84 1018.3
20260505091547 65 224 1.0 5.0 0.00 0.00 0.00 84 1018.3
20260505090105 65 230 1.0 3.0 0.00 0.00 0.00 84 1018.1
20260505084548 65 213 1.0 5.0 0.00 0.00 0.00 84 1018.0
20260505083052 66 242 1.0 4.0 0.00 0.00 0.00 83 1018.1
20260505081554 66 321 1.0 4.0 0.00 0.00 0.00 83 1018.0
20260505080052 66 176 2.0 8.0 0.00 0.00 0.00 83 1017.8
20260505074548 66 172 2.0 6.0 0.00 0.00 0.00 83 1017.6
20260505073056 66 195 2.0 7.0 0.00 0.00 0.00 83 1017.5
20260505071543 66 161 2.0 9.0 0.00 0.00 0.00 83 1017.6
20260505070056 66 229 3.0 8.0 0.00 0.00 0.00 83 1017.6